Regional Weather Roundup
Issued by NWS Sterling, VA

Home | Current Version | Previous Version | Graphics & Text | Print | Product List | Glossary On
Versions: 1 2 3 4 5 6 7 8 9 10 11 12 13 14 15 16 17 18 19 20 21 22 23 24 25 26 27 28 29 30 31 32 33 34 35 36 37 38 39 40 41 42 43 44 45 46 47 48 49 50
000
ASUS41 KLWX 121310
RWRLWX

REGIONAL WEATHER ROUNDUP
NATIONAL WEATHER SERVICE BALTIMORE MD/WASHINGTON DC
900 AM EDT SAT JUL 12 2014

Note: "FAIR" indicates few or no clouds below 12,000 feet
with no significant weather and/or obstructions to visibility.
 TC=TEMPERATURE CELSIUS

 * =Non NWS site. Station does not report precipitation (e.g. rain,
    snow, etc.), thunder, or fog.

DCZ001-MDZ009-015-VAZ040>042-051-053>054-121400-
WASHINGTON METRO

CITY           SKY/WX    TMP DP  RH WIND       PRES   REMARKS
WASHINGTON NAT PTSUNNY   78  69  73 S7        30.22S
DULLES         PTSUNNY   73  69  87 S5        30.22S
QUANTICO       PTSUNNY   77  71  82 S8        30.22F
COLLEGE PARK*  MOSUNNY   79  70  73 CALM      30.21F
LEESBURG*      PTSUNNY   75  73  94 S6        30.23S
GAITHERSBURG*  MOSUNNY   75  72  88 S6        30.27S

$$

MDZ006>007-011-014-121400-
BALTIMORE METRO

CITY           SKY/WX    TMP DP  RH WIND       PRES   REMARKS
BWI AIRPORT    PTSUNNY   78  69  73 S6        30.22S
MD SCIENCE CTR   N/A     79  69  71 MISG      30.22S
MARTIN STATE   PTSUNNY   79  73  83 S3        30.24R
ANNAPOLIS      MOSUNNY   77  69  76 CALM      30.22S
FORT MEADE*    MOSUNNY   75  68  78 S3        30.24F

$$

MDZ012-015-019>023-121400-
MARYLAND EASTERN SHORE

CITY           SKY/WX    TMP DP  RH WIND       PRES   REMARKS
OCEAN CITY     SUNNY     74  68  81 E5        30.23S
SALISBURY      CLOUDY    72  69  90 CALM      30.23S
BAY BRIDGE AP*   N/A     77  72  83 SW6       30.22F
CAMBRIDGE*     CLOUDY    72  70  94 CALM      30.22S
EASTON*        SUNNY     75  75 100 CALM      30.26S

$$

MDZ017>025-121400-
SOUTHERN MARYLAND

CITY           SKY/WX    TMP DP  RH WIND       PRES   REMARKS
PATUXENT RIVER PTSUNNY   77  70  79 CALM      30.22S
ST INIGOES     PTSUNNY   77  69  76 S6        30.22S
LEONARDTOWN*   MOSUNNY   75  68  78 S3        30.24

$$

MDZ003>005-121400-
NORTH CENTRAL MARYLAND

CITY           SKY/WX    TMP DP  RH WIND       PRES   REMARKS
FREDERICK*     CLOUDY    75  75 100 CALM      30.24F HAZE
HAGERSTOWN APT MOSUNNY   75  68  78 SE6       30.21F
WESTMINSTER*   MOSUNNY   77  72  83 S6        30.24S

$$

MDZ501>502-121400-
WESTERN MARYLAND

CITY           SKY/WX    TMP DP  RH WIND       PRES   REMARKS
OAKLAND*       MOSUNNY   70  63  78 S5        30.29S
CUMBERLAND*    MOSUNNY   75  66  73 CALM      30.25F

$$

VAZ025>031-121400-
SHENANDOAH VALLEY

CITY           SKY/WX    TMP DP  RH WIND       PRES   REMARKS
WINCHESTER*    MOSUNNY   73  66  78 S5        30.21F
STAUNTON*      MOSUNNY   73  65  77 SW3       30.27R

$$

WVZ021-048>050-054>055-121400-
EASTERN WEST VIRGINIA PANHANDLE

CITY           SKY/WX    TMP DP  RH WIND       PRES   REMARKS
MARTINSBURG    MOSUNNY   74  65  73 SE3       30.21F
PETERSBURG*    PTSUNNY   69  62  78 CALM      30.23S

$$

VAZ036>039-050-121400-
CENTRAL FOOTHILLS

CITY           SKY/WX    TMP DP  RH WIND       PRES   REMARKS
CHARLOTTESVILL PTSUNNY   73  68  84 CALM      30.23S
ORANGE*        PTSUNNY   73  68  83 S3        30.24S

$$

VAZ055>057-121400-
NORTH AND CENTRAL PIEDMONT

CITY           SKY/WX    TMP DP  RH WIND       PRES   REMARKS
FREDERICKSBRG* MOSUNNY   77  73  86 S3        30.22S
STAFFORD*      PTSUNNY   76  76  98 S3        30.26S

$$

NCZ024-NYZ072-PAZ021-071-VAZ022-071-121400-
OTHER REGIONAL OBSERVATIONS

CITY           SKY/WX    TMP DP  RH WIND       PRES   REMARKS
NEW YORK CITY  SUNNY     76  59  55 VRB3      30.26S
PHILADELPHIA   MOSUNNY   76  66  71 VRB5      30.24R
PITTSBURGH     MOSUNNY   72  63  73 CALM      30.20S
ROANOKE        MOSUNNY   73  66  78 CALM      30.27F
RICHMOND       PTSUNNY   76  70  82 CALM      30.23S
RALEIGH        MOSUNNY   76  70  82 NE5       30.23S

$$

ANZ530>537-121400-
MARINE OBSERVATIONS

STATION/POSITION TIME  TEMP    WIND        PRES
                       AIR SEA DIR/SP/G
                 (UTC) (F)     (DEG/KT/KT) (MB)
THOMAS PT LIGHT  1300   74 79  240/  4/  5 1024.0R
BALT KEY BRIDGE  1300   77     240/  4/  5 1023.3R
COVE POINT       1300   74     180/  6/  6 1023.4R
LEWISETTA        1300   76 80   CALM  /  1 1023.4R
SOLOMONS ISLAND  1300      80                N/A
PINEY POINT      1300          200/  3/  4   N/A

$$




USA.gov is the U.S. government's official web portal to all federal, state and local government web resources and services.